GW1885 Weather Reports


Display with metric or nautical units.
time (UTC)temp
F
wind
direction
speed
MPH
gust
MPH
rain 1hr
in
rain 24hr
in
rain mn
in
humidity
%
barometer
mb
20260904044005 60 35 1.0 4.0 0.00 0.42 0.03 95 1007.3
20260904043504 60 351 1.0 3.0 0.00 0.42 0.03 95 1007.6
20260904043005 60 27 1.0 4.0 0.00 0.42 0.03 95 1007.3
20260904042504 60 43 1.0 4.0 0.00 0.42 0.03 95 1007.4
20260904042004 60 48 2.0 6.0 0.00 0.42 0.03 95 1007.5
20260904041526 60 55 2.0 6.0 0.00 0.42 0.03 96 1007.5
20260904041004 60 84 2.0 6.0 0.00 0.42 0.03 96 1007.6
20260904040525 60 90 2.0 6.0 0.00 0.42 0.03 96 1007.6
20260904040004 60 86 2.0 4.0 0.00 0.42 0.03 96 1007.4
20260904035504 60 79 2.0 6.0 0.00 0.42 0.03 96 1007.5
20260904035005 60 66 2.0 6.0 0.00 0.42 0.03 96 1007.6
20260904034505 60 71 2.0 6.0 0.00 0.42 0.03 96 1007.5
20260904034005 60 52 2.0 8.0 0.00 0.42 0.03 96 1007.5
20260904033504 61 37 2.0 8.0 0.00 0.42 0.03 96 1007.7
20260904033005 60 74 1.0 4.0 0.00 0.42 0.03 96 1007.7
20260904032525 60 75 2.0 3.0 0.00 0.42 0.03 96 1007.8
20260904032005 61 65 2.0 6.0 0.00 0.42 0.03 96 1007.8
20260904031504 61 66 2.0 6.0 0.00 0.42 0.03 96 1007.8
20260904031005 61 51 2.0 7.0 0.00 0.42 0.03 96 1007.5
20260904030526 61 41 2.0 7.0 0.00 0.42 0.03 96 1007.7
20260904030005 61 35 2.0 6.0 0.00 0.42 0.03 96 1007.5
20260904025525 61 36 2.0 6.0 0.00 0.42 0.03 96 1007.6
20260904025004 61 58 2.0 4.0 0.00 0.42 0.03 96 1007.6
20260904024505 61 71 1.0 4.0 0.00 0.42 0.03 96 1007.6
20260904024004 61 45 1.0 4.0 0.00 0.42 0.03 96 1007.8
20260904023504 61 44 2.0 6.0 0.00 0.42 0.03 96 1007.9
20260904023005 61 32 2.0 6.0 0.00 0.42 0.03 96 1007.7
20260904022504 61 34 2.0 6.0 0.00 0.42 0.03 96 1007.8
20260904022004 61 65 1.0 4.0 0.00 0.42 0.03 96 1007.9
20260904021504 61 34 1.0 3.0 0.00 0.42 0.03 96 1008.0
20260904021004 61 51 1.0 7.0 0.00 0.42 0.03 96 1007.8
20260904020504 61 62 2.0 7.0 0.00 0.42 0.03 96 1007.9
20260904020025 61 23 2.0 7.0 0.00 0.42 0.03 96 1008.0
20260904015504 61 360 2.0 7.0 0.00 0.42 0.03 96 1007.8
20260904015005 61 34 2.0 7.0 0.00 0.42 0.03 96 1007.9
20260904014525 61 49 2.0 4.0 0.00 0.42 0.03 96 1007.9
20260904014005 61 28 2.0 7.0 0.00 0.42 0.03 96 1007.9
20260904013504 61 21 2.0 7.0 0.00 0.42 0.03 96 1008.0
20260904013025 61 40 2.0 8.0 0.00 0.42 0.03 96 1008.0
20260904012505 61 56 2.0 8.0 0.00 0.42 0.03 96 1008.1
20260904012025 61 33 2.0 7.0 0.00 0.42 0.03 96 1007.9
20260904011504 61 357 3.0 7.0 0.00 0.42 0.03 97 1007.9
20260904011026 61 22 2.0 7.0 0.00 0.42 0.03 97 1008.0
20260904010504 61 67 3.0 10.0 0.00 0.42 0.03 97 1007.8
20260904010006 61 69 3.0 10.0 0.00 0.42 0.03 97 1007.7
20260904005504 61 43 2.0 7.0 0.02 0.42 0.03 97 1007.9
20260904005005 61 34 2.0 6.0 0.02 0.42 0.03 97 1008.1
20260904004505 62 47 2.0 8.0 0.02 0.42 0.03 97 1007.9
20260904004005 62 60 2.0 9.0 0.02 0.42 0.03 97 1007.9
20260904003504 61 40 3.0 14.0 0.02 0.42 0.03 98 1007.9
20260904003005 62 43 3.0 14.0 0.02 0.42 0.03 98 1007.9
20260904002504 62 64 2.0 8.0 0.02 0.42 0.03 98 1007.9
20260904002005 61 65 2.0 8.0 0.02 0.42 0.03 98 1008.0
20260904001526 61 90 2.0 7.0 0.02 0.42 0.03 98 1007.9
20260904001005 61 103 3.0 7.0 0.02 0.42 0.03 98 1007.8
20260904000504 62 95 3.0 7.0 0.02 0.42 0.02 99 1007.9
20260904000005 62 92 2.0 6.0 0.02 0.42 0.02 98 1007.8
20260903235505 62 94 2.0 4.0 0.01 0.41 0.01 98 1008.1
20260903235004 62 99 2.0 6.0 0.00 0.40 0.01 99 1007.9
20260903234505 62 101 2.0 8.0 0.00 0.40 0.00 99 1007.9
20260903234004 62 93 2.0 8.0 0.00 0.40 0.00 99 1008.0
20260903233505 62 89 2.0 6.0 0.00 0.40 0.00 99 1008.2
20260903233005 62 91 2.0 6.0 0.00 0.40 0.00 99 1008.2
20260903232525 62 95 2.0 6.0 0.00 0.40 0.00 99 1008.2
20260903232004 61 96 2.0 4.0 0.00 0.40 0.00 99 1008.1
20260903231505 62 98 2.0 6.0 0.00 0.40 0.00 99 1008.2
20260903231006 61 102 2.0 6.0 0.00 0.40 0.00 99 1008.3
20260903230504 61 101 2.0 6.0 0.00 0.40 0.00 99 1008.4
20260903230005 61 100 2.0 6.0 0.00 0.40 0.00 99 1008.2
20260903225504 61 102 2.0 4.0 0.00 0.40 0.00 99 1008.3
20260903225005 61 103 2.0 6.0 0.00 0.40 0.00 99 1008.4
20260903224525 61 102 2.0 6.0 0.00 0.40 0.00 99 1008.3
20260903224005 61 102 3.0 6.0 0.00 0.40 0.00 99 1008.5
20260903223504 61 104 3.0 4.0 0.00 0.39 0.00 99 1008.5
20260903223004 61 104 2.0 6.0 0.00 0.39 0.00 99 1008.5
20260903222504 61 106 2.0 6.0 0.00 0.39 0.00 99 1008.6
20260903222004 61 110 3.0 4.0 0.00 0.39 0.00 99 1008.7
20260903221504 61 109 2.0 6.0 0.00 0.39 0.00 99 1008.7
20260903221025 61 106 3.0 6.0 0.00 0.39 0.00 99 1008.7
20260903220505 61 110 3.0 6.0 0.00 0.39 0.00 99 1008.6
20260903220006 61 113 3.0 4.0 0.00 0.39 0.00 99 1008.8
20260903215505 61 111 3.0 6.0 0.00 0.39 0.39 99 1008.8
20260903215004 61 114 3.0 7.0 0.00 0.39 0.39 99 1008.8
20260903214505 61 112 3.0 7.0 0.00 0.39 0.39 99 1009.0
20260903214025 61 107 3.0 7.0 0.00 0.39 0.39 99 1009.0
20260903213504 61 103 3.0 7.0 0.00 0.39 0.39 99 1009.0
20260903213005 60 101 3.0 4.0 0.00 0.39 0.39 99 1009.0
20260903212525 60 102 2.0 4.0 0.00 0.39 0.39 99 1009.2
20260903212006 60 102 3.0 7.0 0.00 0.39 0.39 99 1009.0
20260903211525 60 102 3.0 7.0 0.00 0.39 0.39 99 1009.2
20260903211005 60 105 3.0 7.0 0.00 0.39 0.39 99 1009.0
20260903210504 60 109 3.0 8.0 0.00 0.39 0.39 99 1009.1
20260903210005 60 107 3.0 8.0 0.00 0.39 0.39 99 1009.0
20260903205504 60 103 3.0 7.0 0.00 0.39 0.39 99 1009.0
20260903205005 60 100 3.0 7.0 0.00 0.39 0.39 99 1009.1
20260903204505 60 96 3.0 7.0 0.00 0.39 0.39 99 1009.2
20260903204004 60 100 3.0 7.0 0.00 0.39 0.39 99 1009.2
20260903203526 60 107 3.0 7.0 0.00 0.39 0.39 99 1009.4
20260903203005 60 112 3.0 10.0 0.00 0.39 0.39 99 1009.4
20260903202505 60 115 4.0 10.0 0.00 0.39 0.39 99 1009.4
20260903202004 60 112 4.0 9.0 0.00 0.39 0.39 99 1009.6
20260903201504 60 112 4.0 14.0 0.00 0.39 0.39 99 1009.6
20260903201005 60 119 5.0 14.0 0.00 0.39 0.39 99 1009.5
20260903200505 60 118 5.0 10.0 0.00 0.39 0.39 99 1009.4
20260903200004 60 118 4.0 9.0 0.00 0.39 0.39 99 1009.3
20260903195525 60 123 5.0 9.0 0.00 0.39 0.39 99 1009.4
20260903195005 60 119 5.0 10.0 0.01 0.39 0.39 99 1009.3
20260903194504 60 115 4.0 10.0 0.01 0.39 0.39 99 1009.4
20260903194005 60 120 4.0 9.0 0.02 0.39 0.39 99 1009.4
20260903193525 60 126 4.0 9.0 0.02 0.39 0.39 99 1009.6
20260903193005 60 123 5.0 11.0 0.04 0.39 0.39 99 1009.7
20260903192504 60 128 6.0 14.0 0.04 0.39 0.39 99 1009.5
20260903192004 60 135 6.0 15.0 0.04 0.39 0.39 99 1009.6
20260903191525 60 137 7.0 15.0 0.04 0.39 0.39 99 1009.7
20260903191005 60 134 7.0 15.0 0.04 0.39 0.39 98 1009.5
20260903190503 60 132 7.0 15.0 0.06 0.39 0.39 99 1009.9
20260903190004 60 132 7.0 13.0 0.06 0.39 0.39 98 1009.8
20260903185503 60 129 6.0 14.0 0.07 0.39 0.39 98 1009.7
20260903185005 60 129 6.0 14.0 0.07 0.39 0.39 98 1009.7
20260903184504 60 132 7.0 14.0 0.07 0.38 0.38 98 1010.0
20260903184004 60 133 7.0 14.0 0.07 0.38 0.38 98 1010.0
20260903183505 60 131 7.0 13.0 0.08 0.37 0.37 98 1009.9
20260903183004 60 130 5.0 11.0 0.07 0.36 0.36 98 1010.2
20260903182503 60 130 5.0 10.0 0.06 0.35 0.35 98 1010.2
20260903182005 60 129 4.0 10.0 0.07 0.35 0.35 98 1010.5
20260903181504 60 128 5.0 9.0 0.08 0.35 0.35 98 1010.4
20260903181005 60 123 5.0 10.0 0.08 0.35 0.35 98 1010.5
20260903180503 60 118 4.0 11.0 0.07 0.34 0.34 98 1010.6
20260903180005 60 114 4.0 11.0 0.06 0.33 0.33 98 1010.6
20260903175525 60 114 3.0 9.0 0.05 0.32 0.32 98 1010.7
20260903175025 60 122 3.0 10.0 0.05 0.32 0.32 98 1010.8
20260903174504 60 125 4.0 10.0 0.04 0.31 0.31 98 1010.4
20260903174026 60 126 4.0 9.0 0.04 0.31 0.31 98 1010.3
20260903173526 60 126 5.0 9.0 0.02 0.30 0.30 98 1010.3
20260903173004 60 131 6.0 16.0 0.02 0.29 0.29 98 1010.3
20260903172505 60 129 6.0 16.0 0.02 0.29 0.29 98 1010.1
20260903172005 60 117 4.0 9.0 0.02 0.29 0.29 98 1010.4
20260903171526 60 111 3.0 7.0 0.00 0.28 0.28 98 1010.5
20260903171005 60 116 3.0 6.0 0.00 0.27 0.27 98 1010.9
20260903170503 60 128 4.0 7.0 0.00 0.27 0.27 98 1010.8
20260903170006 60 135 4.0 9.0 0.00 0.27 0.27 98 1010.7
20260903165504 60 135 4.0 9.0 0.00 0.27 0.27 98 1010.8
20260903165025 60 131 4.0 9.0 0.00 0.27 0.27 98 1010.9
20260903164504 60 134 4.0 8.0 0.00 0.27 0.27 98 1010.9
20260903164025 60 137 4.0 8.0 0.00 0.27 0.27 98 1011.0
20260903163505 60 137 4.0 9.0 0.00 0.27 0.27 98 1010.9
20260903163005 60 137 4.0 10.0 0.00 0.27 0.27 98 1010.9
20260903162525 60 139 5.0 10.0 0.01 0.27 0.27 98 1010.9
20260903162005 60 141 4.0 8.0 0.02 0.27 0.27 98 1010.9
20260903161504 60 138 4.0 9.0 0.03 0.27 0.27 98 1010.9
20260903161025 60 137 4.0 9.0 0.04 0.27 0.27 98 1011.1
20260903160504 60 140 4.0 8.0 0.04 0.27 0.27 98 1011.0
20260903160004 60 143 4.0 10.0 0.04 0.27 0.27 99 1011.2
20260903155503 60 139 5.0 10.0 0.04 0.27 0.27 99 1011.1
20260903155004 60 138 5.0 10.0 0.05 0.27 0.27 99 1011.1
20260903154505 60 138 4.0 10.0 0.05 0.27 0.27 99 1011.3
20260903154004 60 135 3.0 8.0 0.05 0.27 0.27 99 1011.4
20260903153503 60 132 3.0 7.0 0.05 0.27 0.27 99 1011.4
20260903153004 60 133 2.0 6.0 0.06 0.27 0.27 99 1011.6
20260903152526 60 137 2.0 7.0 0.06 0.26 0.26 98 1011.6
20260903152004 60 139 2.0 7.0 0.07 0.26 0.26 98 1011.8
20260903151505 59 136 2.0 7.0 0.06 0.24 0.24 98 1011.7
20260903151004 60 134 3.0 8.0 0.07 0.23 0.23 98 1011.6
20260903150504 60 136 3.0 8.0 0.09 0.23 0.23 98 1011.6
20260903150004 60 136 4.0 7.0 0.09 0.23 0.23 98 1011.9
20260903145505 60 140 4.0 7.0 0.10 0.23 0.23 98 1012.0
20260903145004 60 138 4.0 8.0 0.12 0.22 0.22 98 1012.0
20260903144503 60 134 4.0 8.0 0.14 0.22 0.22 98 1012.0
20260903144025 60 131 4.0 8.0 0.14 0.22 0.22 98 1012.1
20260903143503 60 132 3.0 8.0 0.15 0.22 0.22 98 1012.2
20260903143004 59 137 4.0 8.0 0.15 0.20 0.20 98 1012.4
20260903142503 59 137 3.0 7.0 0.15 0.20 0.20 98 1012.5
20260903142003 60 137 2.0 4.0 0.15 0.18 0.18 98 1012.5
20260903141525 59 133 2.0 4.0 0.15 0.18 0.18 98 1012.3
20260903141004 59 130 3.0 7.0 0.13 0.16 0.16 97 1012.4
20260903140503 59 134 3.0 7.0 0.13 0.15 0.15 97 1012.6
20260903140025 60 135 3.0 6.0 0.13 0.14 0.14 97 1012.6
20260903135525 60 134 3.0 7.0 0.12 0.13 0.13 97 1012.6
20260903135005 60 134 3.0 7.0 0.10 0.11 0.11 97 1012.7
20260903134525 60 132 3.0 7.0 0.08 0.08 0.08 97 1012.7
20260903134005 60 132 2.0 6.0 0.08 0.08 0.08 96 1013.0
20260903133505 60 128 3.0 7.0 0.07 0.07 0.07 96 1013.0
20260903133004 60 129 3.0 7.0 0.06 0.06 0.06 95 1013.0
20260903132504 60 133 4.0 8.0 0.04 0.04 0.04 95 1013.2
20260903132005 60 132 3.0 8.0 0.04 0.04 0.04 95 1013.2
20260903131504 61 122 3.0 7.0 0.03 0.03 0.03 95 1013.4
20260903131025 61 111 3.0 4.0 0.02 0.02 0.02 94 1013.2
20260903130503 61 113 3.0 7.0 0.02 0.02 0.02 92 1013.3
20260903130004 62 110 3.0 7.0 0.01 0.01 0.01 91 1013.3
20260903125503 62 100 3.0 7.0 0.01 0.01 0.01 90 1013.4
20260903125003 63 113 3.0 8.0 0.00 0.00 0.00 89 1013.4
20260903124504 63 119 3.0 8.0 0.00 0.00 0.00 86 1013.3
20260903124004 64 119 3.0 7.0 0.00 0.00 0.00 84 1013.4
20260903123504 64 124 3.0 6.0 0.00 0.00 0.00 84 1013.4
20260903123004 64 122 3.0 7.0 0.00 0.00 0.00 83 1013.3
20260903122524 64 121 4.0 9.0 0.00 0.00 0.00 82 1013.4
20260903122003 64 118 3.0 10.0 0.00 0.00 0.00 81 1013.3
20260903121504 64 116 3.0 10.0 0.00 0.00 0.00 82 1013.5
20260903121004 64 117 3.0 7.0 0.00 0.00 0.00 82 1013.5
20260903120504 64 116 3.0 6.0 0.00 0.00 0.00 82 1013.7
20260903120004 64 117 3.0 8.0 0.00 0.00 0.00 83 1013.8
20260903115524 65 122 3.0 8.0 0.00 0.00 0.00 82 1013.7
20260903115004 65 119 3.0 10.0 0.00 0.00 0.00 81 1013.8
20260903114504 65 117 3.0 10.0 0.00 0.00 0.00 81 1013.8
20260903114004 65 122 3.0 7.0 0.00 0.00 0.00 80 1014.0
20260903113503 65 117 2.0 6.0 0.00 0.00 0.00 80 1014.0
20260903113025 65 117 3.0 8.0 0.00 0.00 0.00 80 1014.1
20260903112524 65 121 3.0 8.0 0.00 0.00 0.00 78 1014.0
20260903112004 65 107 2.0 7.0 0.00 0.00 0.00 80 1014.2
20260903111525 65 93 2.0 4.0 0.00 0.00 0.00 78 1014.0
20260903111004 65 93 2.0 6.0 0.00 0.00 0.00 77 1014.1
20260903110503 66 94 2.0 6.0 0.00 0.00 0.00 79 1014.1
20260903110003 66 89 2.0 7.0 0.00 0.00 0.00 77 1014.1
20260903105504 66 108 3.0 9.0 0.00 0.00 0.00 75 1014.1
20260903105005 66 119 4.0 9.0 0.00 0.00 0.00 74 1014.4
20260903104504 66 114 3.0 7.0 0.00 0.00 0.00 75 1014.2
20260903104004 67 116 3.0 7.0 0.00 0.00 0.00 73 1014.3
20260903103504 67 114 3.0 9.0 0.00 0.00 0.00 73 1014.3
20260903103004 67 106 3.0 9.0 0.00 0.00 0.00 74 1014.3
20260903102503 67 93 2.0 8.0 0.00 0.00 0.00 73 1014.3
20260903102003 67 91 2.0 7.0 0.00 0.00 0.00 77 1014.2
20260903101504 67 98 3.0 7.0 0.00 0.00 0.00 75 1014.3
20260903101005 67 98 3.0 8.0 0.00 0.00 0.00 73 1014.3
20260903100504 68 108 4.0 8.0 0.00 0.00 0.00 69 1014.5
20260903100004 70 113 3.0 8.0 0.00 0.00 0.00 69 1014.4
20260903095503 69 94 3.0 7.0 0.00 0.00 0.00 74 1014.6
20260903095004 68 88 2.0 7.0 0.00 0.00 0.00 72 1014.5
20260903094504 69 71 2.0 7.0 0.00 0.00 0.00 72 1014.6
20260903094004 69 71 2.0 6.0 0.00 0.00 0.00 72 1014.5
20260903093504 68 95 2.0 6.0 0.00 0.00 0.00 72 1014.5
20260903093003 67 99 3.0 8.0 0.00 0.00 0.00 75 1014.5
20260903092505 67 101 3.0 8.0 0.00 0.00 0.00 75 1014.6
20260903092005 67 97 3.0 8.0 0.00 0.00 0.00 74 1014.7
20260903091504 67 81 2.0 6.0 0.00 0.02 0.00 76 1014.7
20260903091005 67 84 3.0 8.0 0.00 0.03 0.00 78 1014.6
20260903090504 66 96 3.0 8.0 0.00 0.03 0.00 76 1014.7
20260903090026 67 104 3.0 8.0 0.00 0.03 0.00 77 1014.6
20260903085505 66 104 3.0 9.0 0.00 0.03 0.00 79 1014.8
20260903085004 65 102 2.0 9.0 0.00 0.03 0.00 80 1014.8
20260903084504 65 110 2.0 6.0 0.00 0.03 0.00 83 1014.9
20260903084005 65 119 3.0 7.0 0.00 0.03 0.00 83 1014.9
20260903083525 65 119 3.0 8.0 0.00 0.03 0.00 81 1015.1
20260903083005 65 110 3.0 8.0 0.00 0.03 0.00 84 1014.9
20260903082505 64 101 3.0 7.0 0.00 0.03 0.00 85 1015.1
20260903082025 64 106 3.0 8.0 0.00 0.03 0.00 86 1015.1
20260903081505 64 108 3.0 8.0 0.00 0.03 0.00 84 1015.2
20260903081005 64 91 2.0 6.0 0.00 0.03 0.00 85 1015.1
20260903080505 64 76 2.0 7.0 0.00 0.03 0.00 85 1014.9
20260903080004 64 89 2.0 7.0 0.00 0.03 0.00 86 1015.2
20260903075526 63 101 2.0 7.0 0.00 0.03 0.00 85 1015.3
20260903075004 63 102 3.0 7.0 0.00 0.03 0.00 85 1015.1
20260903074504 64 101 3.0 7.0 0.00 0.03 0.00 84 1015.4
20260903074026 64 97 3.0 8.0 0.00 0.03 0.00 83 1015.1
20260903073526 64 93 2.0 8.0 0.00 0.03 0.00 85 1015.2
20260903073005 63 92 2.0 6.0 0.00 0.03 0.00 85 1015.1
20260903072505 62 87 2.0 6.0 0.00 0.03 0.00 85 1015.2
20260903072027 62 89 3.0 6.0 0.00 0.03 0.00 85 1015.4
20260903071504 62 90 2.0 6.0 0.00 0.03 0.00 86 1015.2
20260903071005 62 85 2.0 6.0 0.00 0.03 0.00 85 1015.2
20260903070504 61 89 2.0 4.0 0.00 0.03 0.00 86 1015.2
20260903070027 61 88 2.0 4.0 0.00 0.03 0.00 86 1015.1
20260903065505 61 87 2.0 6.0 0.00 0.03 0.00 86 1015.4
20260903065006 60 91 2.0 7.0 0.00 0.03 0.00 86 1015.2
20260903064504 60 91 2.0 7.0 0.00 0.03 0.00 86 1015.2
20260903064005 60 91 2.0 6.0 0.00 0.03 0.00 87 1015.4
20260903063526 60 95 2.0 6.0 0.00 0.03 0.00 87 1015.5
20260903063005 60 96 2.0 6.0 0.00 0.03 0.00 88 1015.4
20260903062505 60 94 2.0 4.0 0.00 0.03 0.00 88 1015.4
20260903062006 59 98 3.0 4.0 0.00 0.03 0.00 88 1015.4
20260903061505 59 102 3.0 6.0 0.00 0.03 0.00 87 1015.5
20260903061005 59 103 3.0 6.0 0.00 0.03 0.00 88 1015.4
20260903060504 59 104 3.0 6.0 0.00 0.04 0.00 88 1015.4
20260903060005 58 112 3.0 8.0 0.00 0.04 0.00 89 1015.4
20260903055504 58 119 3.0 8.0 0.00 0.04 0.00 89 1015.3
20260903055005 58 120 3.0 8.0 0.00 0.04 0.00 90 1015.3
20260903054504 58 115 3.0 8.0 0.00 0.04 0.00 91 1015.3
20260903054005 57 112 3.0 7.0 0.00 0.04 0.00 91 1015.4
20260903053504 57 110 3.0 6.0 0.00 0.04 0.00 92 1015.2
20260903053005 56 108 2.0 4.0 0.00 0.04 0.00 93 1015.4
20260903052505 56 106 2.0 4.0 0.00 0.04 0.00 94 1015.5
20260903052005 56 112 2.0 4.0 0.00 0.04 0.00 94 1015.3
20260903051525 55 117 2.0 4.0 0.00 0.04 0.00 94 1015.4
20260903051005 55 118 3.0 6.0 0.00 0.04 0.00 95 1015.4
20260903050504 55 118 3.0 6.0 0.00 0.04 0.00 95 1015.4
20260903050006 54 116 3.0 4.0 0.00 0.04 0.00 95 1015.3
20260903045505 54 116 3.0 6.0 0.00 0.04 0.00 95 1015.5
20260903045026 54 111 2.0 6.0 0.00 0.04 0.00 95 1015.5
20260903044505 54 102 2.0 3.0 0.00 0.04 0.00 96 1015.3